This is the latest recevied weather packets stored in our database for station/object DM4XI-13. If no packets are shown the sender has not sent any weather packets the latest 10 day(s).
| Time | Temp. | Humidity | Pressure | Rain* | Wind** | Luminosity | Snow |
|---|---|---|---|---|---|---|---|
| 1777844900 | 18.33° C | 47% | 1011.1 hPa | 0 mm | 0.89 m/s, 291° | 0 W/m² | - |
| 1777844839 | 18.33° C | 47% | 1011.1 hPa | 0 mm | 1.34 m/s, 252° | 0 W/m² | - |
| 1777844778 | 18.33° C | 46% | 1011.1 hPa | 0 mm | 0.89 m/s, 311° | 0 W/m² | - |
| 1777844717 | 18.33° C | 46% | 1011 hPa | 0 mm | 1.34 m/s, 308° | 0 W/m² | - |
| 1777844656 | 18.33° C | 46% | 1011.1 hPa | 0 mm | 0.89 m/s, 258° | 0 W/m² | - |
| 1777844595 | 18.33° C | 46% | 1010.9 hPa | 0 mm | 0.89 m/s, 318° | 0 W/m² | - |
| 1777844534 | 18.33° C | 46% | 1011 hPa | 0 mm | 0.89 m/s, 290° | 0 W/m² | - |
| 1777844473 | 18.33° C | 46% | 1011 hPa | 0 mm | 0.89 m/s, 291° | 0 W/m² | - |
| 1777844412 | 18.33° C | 46% | 1010.9 hPa | 0 mm | 0.89 m/s, 293° | 0 W/m² | - |
| 1777844351 | 18.89° C | 46% | 1010.9 hPa | 0 mm | 0.89 m/s, 306° | 0 W/m² | - |
| 1777844290 | 18.89° C | 46% | 1011.1 hPa | 0 mm | 0.89 m/s, 312° | 0 W/m² | - |
| 1777844229 | 18.89° C | 46% | 1011 hPa | 0 mm | 0.89 m/s, 302° | 0 W/m² | - |
| 1777844167 | 18.89° C | 46% | 1010.8 hPa | 0 mm | 1.34 m/s, 288° | 0 W/m² | - |
| 1777844107 | 18.89° C | 46% | 1010.6 hPa | 0 mm | 1.34 m/s, 336° | 0 W/m² | - |
| 1777844045 | 18.89° C | 46% | 1011 hPa | 0 mm | 0.89 m/s, 295° | 0 W/m² | - |
| 1777843984 | 18.89° C | 46% | 1011 hPa | 0 mm | 1.79 m/s, 302° | 0 W/m² | - |
| 1777843924 | 18.89° C | 46% | 1010.9 hPa | 0 mm | 0.45 m/s, 268° | 0 W/m² | - |
| 1777843862 | 18.89° C | 45% | 1010.9 hPa | 0 mm | 1.34 m/s, 282° | 0 W/m² | - |
| 1777843802 | 18.89° C | 46% | 1010.7 hPa | 0 mm | 0.45 m/s, 265° | 0 W/m² | - |
| 1777843741 | 18.89° C | 45% | 1010.9 hPa | 0 mm | 1.34 m/s, 289° | 0 W/m² | - |
| 1777843680 | 18.89° C | 45% | 1010.8 hPa | 0 mm | 0.89 m/s, 277° | 0 W/m² | - |
| 1777843619 | 18.89° C | 45% | 1010.7 hPa | 0 mm | 0.89 m/s, 287° | 0 W/m² | - |
| 1777843557 | 18.89° C | 45% | 1010.7 hPa | 0 mm | 0.89 m/s, 296° | 0 W/m² | - |
| 1777843497 | 18.89° C | 45% | 1010.8 hPa | 0 mm | 0.45 m/s, 242° | 0 W/m² | - |
| 1777843435 | 18.89° C | 45% | 1010.7 hPa | 0 mm | 0.89 m/s, 275° | 0 W/m² | - |
* Rain latest hour (hover to see other rain measurements)
** Current wind speed in m/s (hover to see current wind gust speed)